GALAXY 33 (G-33)

Last updated on Tue Jul 01 2025 00:02:49 GMT+0000 (Coordinated Universal Time)

1 54026U 22128A 25181.60749928 .00000079 00000+0 00000+0 0 9998 2 54026 0.0183 22.6645 0001771 73.2029 268.7423 1.00272094 10216
UTC large
Height (km)
Speed (km/s)
/
Latitude / Longitude
Inclination (degrees)
Orbital Period (minutes)
Azimuth
Elevation
Range (km)
Doppler Factor

Next 0 passes for location: London (51.5072 / 0.1276)

Sorry there are no passes over London.